{"data":{"norad_id":57115,"intl_designator":"2023-090Q","name":"STARLINK-6085","alt_names":[],"object_type":"PAYLOAD","status":"ACTIVE","operator":null,"country":"US","launch_date":"2023-06-23","launch_site_code":"AFETR","launch_vehicle":null,"mission":null,"orbit_class":"UNKNOWN","rcs_meters":null,"size_class":null,"mass_kg":null,"dimensions":null,"purposes":["comms"],"wikipedia_slug":null,"has_3d_model":false,"image_url":null,"decayed_at":null,"tle_current":{"epoch":"2026-05-25T03:59:51.162432Z","epoch_age_seconds":54047,"freshness":"FRESH","line1":"1 57115U 23090Q   26145.16656438  .00027426  00000+0  13985-2 0  9998","line2":"2 57115  42.9978 199.9154 0020579 332.0929  27.8814 15.16077561162142","mean_motion":15.16077561,"eccentricity":0.0020579,"inclination_deg":42.9978,"raan_deg":199.9154,"arg_perigee_deg":332.0929,"mean_anomaly_deg":27.8814,"bstar":0.0013985,"rev_number":16214,"period_min":94.981947958532,"perigee_km":503.51815310128,"apogee_km":531.90007654066,"semimajor_km":6895.846114821,"source":"CELESTRAK","updated_at":"2026-05-25T13:38:18.242284Z"}}}